Regional Weather Roundup
Issued by NWS

Home | Current Version | Previous Version | Graphics & Text | Print | Product List | Glossary On
Versions: 1 2 3 4 5 6 7 8 9 10 11 12 13 14 15 16 17 18 19 20 21 22 23 24 25 26 27 28 29 30 31 32 33 34 35 36 37 38 39 40 41 42 43 44 45 46 47 48 49 50
000
ASUS43 KLMK 231610
RWRKY
KENTUCKY REGIONAL WEATHER ROUNDUP
NATIONAL WEATHER SERVICE LOUISVILLE KY
1100 AM EST SUN NOV 23 2014

NOTE "FAIR" INDICATES FEW OR NO CLOUDS BELOW 12,000 FEET
WITH NO SIGNIFICANT WEATHER AND/OR OBSTRUCTIONS TO VISIBILITY.

KYZ001>023-026-027-061>063-070>075-231700-
WESTERN AND SOUTH CENTRAL KENTUCKY

CITY           SKY/WX    TMP DP  RH WIND       PRES   REMARKS
PADUCAH        CLOUDY    57  50  77 SE12      29.71F
HENDERSON      CLOUDY    52  45  76 SE9       29.77F
OWENSBORO      CLOUDY    55  49  80 SE8       29.79F
HOPKINSVILLE   CLOUDY    57  52  82 SE13G21   29.76F
BOWLING GREEN  CLOUDY    61  50  67 SE17      29.82F
GLASGOW        CLOUDY    58  46  63 SE10      29.84F
$$

KYZ024-025-028>034-038-045-046-053-231700-
NORTH CENTRAL KENTUCKY

CITY           SKY/WX    TMP DP  RH WIND       PRES   REMARKS
LOUISVILLE/SDF LGT RAIN  57  49  74 SE10      29.85F
LOUISVILLE/LOU CLOUDY    58  43  57 SE12      29.86F
FORT KNOX      CLOUDY    56  49  74 E13       29.82F
$$

KYZ035>037-039>044-047>052-055>060-089>105-231700-
NORTHEAST KENTUCKY

CITY           SKY/WX    TMP DP  RH WIND       PRES   REMARKS
LEXINGTON      CLOUDY    56  42  59 SE15G22   29.90F
COVINGTON      PTSUNNY   57  40  52 S12       29.91F
FRANKFORT      PTSUNNY   58  42  55 SE8       29.88F
$$

KYZ054-064>069-076>088-106>120-231700-
SOUTHEAST KENTUCKY

CITY           SKY/WX    TMP DP  RH WIND       PRES   REMARKS
JACKSON        CLOUDY    56  39  53 VRB5      29.96F
LONDON         LGT RAIN  57  43  59 SE9       29.93F
SOMERSET       CLOUDY    54  37  54 SE6       29.93F
MIDDLESBORO    CLOUDY    54  44  69 E5        29.99F
MONTICELLO     CLOUDY    58  44  59 SE6       29.93F
$$



USA.gov is the U.S. government's official web portal to all federal, state and local government web resources and services.